Weather History for Idaho Falls, ID

Change the Weather History Date:

Saturday, November 30, 2013

  Actual Average Record
Temperature  
Mean Temperature 32 °F 25 °F  
Max Temperature 43 °F 34 °F 60 °F (1999)
Min Temperature 21 °F 16 °F -19 °F (1975)
Degree Days  
Heating Degree Days 33 40  
Month to date heating degree days 897 982  
Since 1 July heating degree days 1724 1903  
Cooling Degree Days 0 0  
Month to date cooling degree days 0 0  
Year to date cooling degree days 510 264  
Moisture  
Dew Point 26 °F    
Average Humidity 71    
Maximum Humidity 88    
Minimum Humidity 53    
Precipitation  
Precipitation 0.00 in 0.03 in 0.75 in (1970)
Month to date precipitation 0.29 0.87  
Year to date precipitation 6.17 9.52  
Sea Level Pressure  
Sea Level Pressure 30.33 in    
Wind  
Wind Speed 7 mph (SSW)    
Max Wind Speed 17 mph    
Max Gust Speed 20 mph    
Visibility 9 miles    
Events      
T = Trace of Precipitation, MM = Missing Value Source: NWS Daily Summary

Daily Weather History Graph

Daily Weather History Graph

Search for Another Location

Airport:

Trip Planner

Search our weather history database for the weather conditions in past years. The results will help you decide how hot, cold, wet, or windy it might be!

Date:

Astronomy

Nov. 30, 2013 Rise Set
Actual Time 7:40 AM MST 4:53 PM MST
Civil Twilight 7:08 AM MST 5:25 PM MST
Nautical Twilight 6:33 AM MST 6:00 PM MST
Astronomical Twilight 5:58 AM MST 6:35 PM MST
Moon 4:51 AM MST (11/30) 3:23 PM MST (11/30)
Length of Visible Light 10h 16m
Length of Day
9h 12m
Waning Crescent, 7% of the Moon is Illuminated
Nov 30
Waning Crescent
Dec 2
New
Dec 9
First Quarter
Dec 17
Full
Dec 25
Last Quarter

Hourly Weather History & Observations

Time (MST) Temp. Windchill Dew Point Humidity Pressure Visibility Wind Dir Wind Speed Gust Speed Precip Events Conditions
12:53 AM 23.0 °F 17.0 °F 19.0 °F 85% 30.33 in 6.0 mi NNE 4.6 mph - N/A   Clear
1:53 AM 24.1 °F - 19.9 °F 84% 30.33 in 7.0 mi Calm Calm - N/A   Clear
2:53 AM 27.0 °F 20.5 °F 21.9 °F 81% 30.31 in 8.0 mi SE 5.8 mph - N/A   Clear
3:53 AM 24.1 °F - 19.9 °F 84% 30.32 in 7.0 mi Calm Calm - N/A   Partly Cloudy
4:53 AM 24.1 °F 19.7 °F 19.9 °F 84% 30.33 in 7.0 mi North 3.5 mph - N/A   Partly Cloudy
5:53 AM 26.1 °F 21.9 °F 21.9 °F 84% 30.34 in 8.0 mi WNW 3.5 mph - N/A   Overcast
6:53 AM 28.9 °F 25.2 °F 24.1 °F 82% 30.35 in 8.0 mi SW 3.5 mph - N/A   Overcast
7:53 AM 28.9 °F 23.9 °F 25.0 °F 85% 30.36 in 8.0 mi SW 4.6 mph - N/A   Overcast
8:53 AM 30.9 °F 25.2 °F 25.0 °F 79% 30.39 in 8.0 mi WSW 5.8 mph - N/A   Overcast
9:53 AM 32.0 °F - 26.1 °F 79% 30.40 in 7.0 mi Calm Calm - N/A   Mostly Cloudy
10:53 AM 36.0 °F 31.1 °F 28.0 °F 73% 30.37 in 7.0 mi SSE 5.8 mph - N/A   Haze
11:53 AM 39.0 °F 31.8 °F 27.0 °F 62% 30.36 in 7.0 mi SW 11.5 mph - N/A   Haze
12:53 PM 41.0 °F 33.1 °F 27.0 °F 57% 30.35 in 7.0 mi SSW 15.0 mph - N/A   Haze
1:53 PM 41.0 °F 34.3 °F 27.0 °F 57% 30.32 in 8.0 mi SW 11.5 mph - N/A   Haze
2:53 PM 43.0 °F 36.8 °F 27.0 °F 53% 30.30 in 10.0 mi SW 11.5 mph - N/A   Scattered Clouds
3:53 PM 43.0 °F 37.7 °F 27.0 °F 53% 30.31 in 10.0 mi SW 9.2 mph - N/A   Mostly Cloudy
4:53 PM 39.0 °F 36.8 °F 27.0 °F 62% 30.33 in 10.0 mi SSW 3.5 mph - N/A   Mostly Cloudy
5:53 PM 39.0 °F 36.8 °F 27.0 °F 62% 30.33 in 10.0 mi SSE 3.5 mph - N/A   Overcast
6:53 PM 39.0 °F 32.8 °F 27.0 °F 62% 30.33 in 10.0 mi SSW 9.2 mph - N/A   Overcast
7:53 PM 37.9 °F 31.5 °F 27.0 °F 65% 30.33 in 10.0 mi South 9.2 mph - N/A   Overcast
8:53 PM 37.9 °F 30.5 °F 30.9 °F 76% 30.33 in 10.0 mi SSW 11.5 mph - N/A   Overcast
9:53 PM 37.0 °F 29.8 °F 30.0 °F 76% 30.32 in 10.0 mi SSW 10.4 mph - N/A   Overcast
10:08 PM 37.0 °F 29.8 °F 30.0 °F 76% 30.26 in 10.0 mi SSW 10.4 mph - N/A   Overcast
10:42 PM 37.0 °F 29.3 °F 30.9 °F 79% 30.25 in 10.0 mi SSW 11.5 mph - N/A   Overcast
10:53 PM 37.0 °F 29.3 °F 30.9 °F 79% 30.30 in 10.0 mi SSW 11.5 mph - N/A   Overcast
11:07 PM 37.0 °F 30.4 °F 30.9 °F 79% 30.27 in 10.0 mi SW 9.2 mph - N/A   Overcast
11:53 PM 37.0 °F 29.3 °F 30.9 °F 79% 30.30 in 10.0 mi SW 11.5 mph - N/A   Overcast